SCP
4 4 4 4 4 4 4 3 2 2 1 1 1 0 0 0 0 1 2 2 1 1 1 1 1 1 1 1 1 1 1 1 1 1 1 0 0 0 0 0 0 0 0
4 4 4 4 4 4 4 3 3 2 2 1 1 1 0 0 0 1 1 2 1 1 1 1 1 1 1 1 1 1 1 1 1 1 1 0 0 0 0 0 0 0 0
4 5 5 4 4 4 4 4 3 3 2 1 1 1 1 0 0 0 1 1 1 1 1 1 1 1 1 1 1 1 1 0 0 0 0 0 0 0 0 0 0 0 0
4 5 5 5 4 4 4 4 4 3 2 2 1 1 1 0 0 0 0 1 1 1 1 1 1 2 1 1 1 1 1 0 0 0 0 0 0 0 0 0 0 0 0
5 5 5 5 4 4 4 4 3 3 3 2 2 1 1 1 0 0 0 0 1 1 1 1 2 2 2 1 1 1 1 0 0 0 0 0 0 0 0 0 0 0 0
5 4 4 5 4 4 4 3 3 3 3 2 2 2 1 1 1 1 0 0 1 1 1 1 2 2 2 1 1 1 0 0 0 0 0 0 0 1 1 0 0 0 0
4 4 4 5 4 4 4 3 3 3 3 3 3 2 2 1 1 1 1 1 1 1 1 1 2 2 2 2 1 1 0 0 0 0 0 0 0 1 1 0 0 0 1
4 4 4 4 4 4 4 3 3 2 3 3 3 2 2 1 1 1 1 1 1 1 1 1 1 2 2 2 1 1 0 0 0 0 0 1 1 1 1 0 0 0 1
4 5 5 4 4 3 3 3 2 2 2 2 2 2 1 1 1 1 1 1 1 1 1 1 1 1 2 1 1 0 0 0 0 0 0 1 1 1 0 0 0 0 0
4 5 5 4 3 3 2 2 2 2 2 2 2 1 1 1 1 1 1 1 1 1 1 1 1 1 1 1 1 0 0 0 0 0 0 0 1 0 0 0 0 0 0
4 4 4 4 3 2 2 1 2 1 1 1 1 1 1 1 1 1 1 1 1 1 1 1 1 1 1 1 1 0 0 0 0 0 0 0 0 0 0 0 0 0 0
3 4 4 4 3 2 2 1 1 1 1 1 1 1 1 1 1 1 1 0 0 0 0 1 1 0 1 1 0 0 0 0 0 0 0 0 0 0 0 0 0 0 0
3 3 4 4 3 3 2 2 2 1 1 1 1 1 1 1 1 1 1 0 1 0 0 0 0 0 0 0 0 0 0 0 0 0 0 0 0 0 0 0 0 0 0
3 3 3 4 4 3 2 2 2 1 1 1 1 1 1 1 1 1 1 1 1 1 0 0 0 0 0 0 0 0 0 0 0 0 0 0 0 0 0 0 0 0 0
3 3 3 4 4 3 3 2 2 1 1 1 1 1 1 1 1 1 1 1 1 1 1 0 0 0 0 0 0 0 0 0 0 0 0 0 0 0 0 0 0 0 0
3 3 3 3 3 3 3 2 2 1 1 1 1 1 1 1 1 1 1 1 1 1 1 1 1 0 0 0 0 0 0 0 0 0 0 0 0 0 0 0 0 0 0
3 2 2 2 2 2 2 2 1 1 1 1 1 1 1 1 1 1 1 0 1 1 1 1 1 0 0 0 0 0 0 0 0 0 0 0 0 0 0 0 0 0 0
2 1 1 1 1 1 1 1 1 1 1 1 1 1 1 1 1 0 0 0 0 0 0 1 0 0 0 0 0 0 0 0 0 0 0 0 0 0 0 0 0 0 0
0 0 0 0 0 0 0 0 0 0 0 1 1 0 0 0 0 0 0 0 0 0 0 0 0 0 0 0 0 0 0 0 0 0 0 0 0 0 0 0 0 0 0
0 0 0 0 0 0 0 0 0 0 0 0 0 0 0 0 0 0 0 0 0 0 0 0 0 0 0 0 0 0 0 0 0 0 0 0 0 0 0 0 0 0 0
0 0 0 0 0 0 0 0 0 0 0 0 0 0 0 0 0 0 0 0 0 0 0 0 0 0 0 0 0 0 0 0 0 0 0 0 0 0 0 0 0 0 0
0 0 0 0 0 0 0 0 0 0 0 0 0 0 0 0 0 0 0 0 0 0 0 0 0 0 0 0 0 0 0 0 0 0 0 0 0 0 0 0 0 0 0
0 0 0 0 0 0 0 0 0 0 0 0 0 0 0 0 0 0 0 0 0 0 0 0 0 0 0 0 0 0 0 0 0 0 0 0 0 0 0 0 0 0 0
0 0 0 0 0 0 0 0 0 0 0 0 0 0 0 0 0 0 0 0 0 0 0 0 0 0 0 0 0 0 0 0 0 0 0 0 0 0 0 0 0 0 0
0 0 0 0 0 0 0 0 0 0 0 0 0 0 0 0 0 0 0 0 0 0 0 0 0 0 0 0 0 0 0 0 0 0 0 0 0 0 0 0 0 0 0
0 0 0 0 0 0 0 0 0 0 0 0 0 0 0 0 0 0 0 0 0 0 0 0 0 0 0 0 0 0 0 0 0 0 0 0 0 0 0 0 0 0 0
Wind_Speed
9 11 13 12 12 11 11 10 10 10 9 9 9 8 8 8 8 8 8 8 8 8 8 8 9 9 9 9 9 9 8 8 7 7 7 7 7 7 8 8 7 6 9
11 12 13 13 12 11 11 11 10 10 9 9 8 8 8 8 8 8 8 8 8 8 8 8 8 8 8 8 8 8 7 6 5 4 3 3 4 6 7 8 8 5 8
12 12 12 12 12 11 11 11 11 10 10 9 8 8 8 8 7 7 8 8 7 7 7 7 7 7 7 7 7 6 5 4 3 2 2 1 3 6 7 6 6 6 6
11 11 11 13 12 12 11 11 11 10 10 9 8 9 8 8 8 8 8 7 7 6 6 7 7 7 6 6 6 5 4 3 4 5 2 2 4 6 6 5 5 5 4
9 10 11 13 13 12 12 11 11 10 9 9 8 8 8 8 8 8 8 7 7 6 6 6 6 6 6 5 5 4 3 4 6 6 2 3 4 6 6 5 4 4 3
9 10 10 12 13 12 11 11 11 10 10 9 8 8 8 8 7 7 7 7 7 6 6 6 6 5 5 5 4 3 3 5 6 3 1 3 4 5 5 4 4 3 3
9 9 10 12 12 12 12 11 10 10 10 9 9 8 8 7 7 7 7 7 6 6 5 5 5 5 4 4 3 3 4 6 5 3 1 3 4 5 4 3 3 3 3
8 9 9 12 12 12 12 11 11 10 10 9 8 8 8 8 8 7 7 6 6 5 5 4 4 4 3 3 3 3 4 6 6 4 2 3 5 5 3 3 3 4 3
7 8 8 9 10 12 12 11 11 10 9 9 8 8 7 7 8 7 6 6 5 5 4 4 4 3 2 2 2 3 4 6 5 3 2 3 5 4 3 3 4 4 4
6 6 7 7 8 8 8 10 10 10 9 8 8 6 5 6 6 6 6 5 5 5 4 4 3 2 2 2 2 3 5 6 4 2 2 3 5 4 4 4 4 5 5
5 5 6 7 6 6 6 8 8 8 7 6 5 5 3 3 3 4 5 4 3 3 2 2 1 2 2 2 3 3 4 2 2 2 3 5 6 5 5 5 5 5 6
4 4 5 6 6 5 5 5 3 4 4 3 3 2 1 2 2 3 4 3 1 1 1 1 2 3 2 0 1 2 1 2 2 3 4 7 6 5 5 5 5 5 5
5 4 4 5 5 5 4 3 2 2 2 3 3 3 2 2 2 2 1 1 0 1 1 1 1 1 1 1 0 1 1 2 1 2 4 7 6 5 5 5 6 6 6
5 5 4 5 5 5 4 3 3 2 2 3 3 3 2 2 2 2 2 1 1 1 1 1 1 1 2 2 1 2 2 1 1 2 3 6 6 6 6 7 7 7 7
5 4 4 4 5 5 4 3 4 3 3 3 3 3 4 2 2 2 2 2 2 2 2 2 1 2 2 3 2 3 3 3 2 2 3 6 6 7 7 8 8 8 8
6 4 4 4 5 5 4 4 4 3 3 3 3 4 4 3 3 3 2 2 2 2 2 2 2 2 2 2 2 3 3 3 3 3 3 4 7 8 8 8 9 9 9
6 6 5 5 5 5 5 5 4 3 3 3 3 4 4 4 3 3 2 2 3 3 3 2 3 2 2 2 3 3 2 3 3 3 3 2 3 6 8 8 9 9 10
7 6 5 5 6 6 6 5 4 4 4 4 3 3 5 5 4 3 2 2 3 3 3 2 2 2 2 2 2 2 2 2 3 3 3 3 3 3 5 7 8 8 9
7 6 6 5 6 6 6 5 5 4 4 3 3 3 4 4 4 3 2 3 3 3 3 3 3 2 2 2 1 1 1 1 1 3 3 4 3 3 2 4 6 7 8
6 6 6 5 5 5 4 4 3 4 3 3 4 4 4 4 4 3 2 3 3 3 3 3 3 3 2 2 2 1 1 0 1 2 2 2 3 3 3 3 3 4 8
6 6 5 5 4 3 3 2 2 2 2 3 3 4 4 4 4 3 3 2 3 2 3 3 3 3 2 2 2 2 1 1 2 2 2 2 2 2 3 3 3 3 3
5 5 5 5 4 3 2 2 2 2 2 2 2 2 3 3 3 3 3 2 3 2 3 3 3 2 2 2 2 1 2 1 1 1 1 1 1 2 2 3 3 3 2
5 4 4 4 4 4 3 2 2 2 1 1 2 1 1 2 2 2 3 2 2 2 2 2 2 2 2 2 2 1 1 1 2 1 1 1 1 1 1 1 2 2 3
5 4 4 5 4 4 3 2 2 1 1 1 1 2 1 1 1 1 1 2 2 2 1 1 2 1 1 2 2 1 0 0 1 2 2 0 0 0 1 1 1 1 2
5 4 4 4 4 3 2 2 2 1 1 1 1 2 2 1 1 0 1 1 1 1 1 2 1 1 1 1 1 1 2 1 1 1 2 2 2 1 0 1 0 0 1
5 4 4 4 4 3 3 2 2 2 2 2 1 1 1 1 1 1 0 0 1 1 1 1 1 1 1 1 1 1 1 1 1 1 2 2 3 2 1 1 1 1 0
Wind_Direction
122 131 134 133 130 128 126 125 122 117 114 114 110 108 106 102 95 90 89 92 91 88 86 85 87 83 78 76 76 73 73 72 72 71 69 71 71 66 60 50 52 68 70
126 132 135 133 132 128 126 123 120 116 113 112 110 109 106 101 95 90 88 90 93 90 88 86 85 84 80 76 75 73 71 69 68 67 66 71 80 74 62 56 57 64 69
123 131 134 132 130 126 125 124 120 116 114 114 111 109 106 101 96 91 89 85 87 89 89 86 83 81 78 74 75 73 68 55 28 348 302 204 113 84 74 65 61 60 64
124 131 132 129 127 125 123 122 119 117 115 113 109 107 104 101 98 93 87 83 79 82 87 86 82 78 78 76 73 69 54 8 329 314 297 124 103 93 83 71 59 54 54
120 124 126 127 125 123 121 119 119 118 116 113 108 106 102 99 96 88 82 77 72 75 84 86 82 79 75 72 67 58 25 344 324 307 303 76 82 93 81 69 60 51 46
117 119 125 123 123 122 121 120 120 119 116 112 107 103 101 99 95 88 79 74 68 68 78 83 82 82 77 67 58 41 7 340 322 301 13 77 89 90 77 62 54 42 34
111 116 126 120 118 118 119 117 116 114 112 108 106 103 102 100 94 87 79 75 69 66 72 79 79 77 76 62 45 16 344 327 306 309 27 79 91 87 69 46 29 18 14
107 117 123 119 114 110 109 110 108 108 107 105 104 103 104 100 93 88 80 73 66 61 64 73 72 64 58 47 25 358 337 320 319 327 24 77 86 76 56 24 359 349 345
104 119 122 121 114 107 103 103 102 102 102 100 98 98 99 98 96 91 81 69 62 55 59 62 52 48 38 23 357 331 317 309 308 303 4 75 75 60 31 353 335 328 321
94 106 120 121 120 116 108 102 100 99 100 99 97 98 103 109 107 95 83 68 60 52 56 59 42 21 4 331 305 299 300 305 290 303 53 73 60 37 11 350 334 329 324
92 98 113 112 111 113 116 112 107 104 102 103 102 105 116 112 104 99 93 81 64 49 49 55 4 316 304 277 261 272 297 290 310 45 59 69 51 26 5 354 347 341 333
107 107 113 113 114 113 114 114 108 104 102 89 86 86 86 84 89 98 115 117 92 12 4 305 299 283 280 266 265 278 294 317 4 53 63 65 47 27 10 357 352 348 343
116 105 106 113 113 112 111 108 96 93 91 76 66 50 57 72 81 82 102 99 340 359 4 318 314 310 324 333 357 314 317 345 27 56 69 67 51 32 19 10 8 5 0
111 109 107 104 104 95 95 97 92 80 77 71 55 41 47 57 56 53 58 32 17 356 347 337 303 333 337 1 16 351 353 13 38 76 78 72 56 37 24 18 15 12 10
114 107 108 107 106 99 93 94 87 76 72 72 56 39 40 56 51 35 38 33 19 359 352 338 346 3 360 6 6 6 2 9 30 64 83 76 64 47 35 25 20 17 15
104 101 102 98 100 101 96 91 84 79 73 70 59 49 41 49 50 39 33 22 14 360 345 350 6 8 7 8 7 5 1 5 28 50 86 81 68 55 42 34 27 23 20
105 95 88 94 92 93 88 86 82 76 73 68 58 49 46 45 45 42 36 26 5 350 356 359 0 6 9 15 13 4 11 20 25 44 65 77 74 64 52 41 34 29 26
105 98 93 96 91 83 78 76 76 71 68 62 56 51 46 43 39 41 35 26 7 356 359 358 13 10 6 11 9 354 6 18 25 50 61 63 58 58 53 46 37 30 27
106 104 96 92 92 87 84 81 80 77 70 65 57 50 42 38 32 44 38 25 11 8 0 1 24 10 356 359 348 334 4 26 23 57 68 72 67 56 47 46 41 35 29
106 110 106 100 100 100 98 92 85 78 76 69 61 50 41 34 28 32 42 29 14 20 8 6 12 10 354 351 336 334 308 159 67 65 61 68 66 59 44 33 33 29 31
106 106 110 110 105 106 104 99 97 90 81 73 67 60 47 36 25 29 31 32 23 23 13 6 10 10 3 356 353 330 304 141 108 96 75 62 58 58 47 37 38 27 18
116 114 115 115 110 100 99 103 104 107 104 105 87 67 54 44 25 21 24 28 22 16 18 13 15 6 350 14 16 337 338 334 330 122 106 100 58 55 52 46 45 34 33
124 125 127 118 111 104 96 94 89 84 83 91 103 96 67 62 49 29 18 26 15 21 22 5 17 22 350 347 36 47 21 316 323 300 220 141 101 73 67 48 52 30 33
135 132 130 121 112 109 108 113 118 128 139 152 148 147 141 111 82 41 20 24 17 14 7 349 37 13 6 340 341 12 202 214 314 312 297 259 129 98 101 57 50 33 37
136 137 132 119 114 115 124 139 143 134 137 136 146 152 151 145 144 105 36 23 13 15 12 7 16 13 360 348 333 329 320 309 246 230 289 306 315 272 177 152 138 57 31
136 138 137 135 139 148 161 168 168 162 159 164 183 171 180 178 179 174 160 332 345 7 358 345 336 347 334 328 323 323 322 319 325 300 287 303 297 279 265 224 190 180 107